Apalachicola, FL

5:32 AM EDT on September 25, 2016 (GMT -0400)
Apalachicola Municipal

Weather History for KAAF - March, 2013

Change the Weather History Date:

Sunday, March 31, 2013

  Actual Average Record
Temperature  
Mean Temperature 69 °F 63 °F  
Max Temperature 73 °F 73 °F 83 °F (2015)
Min Temperature 64 °F 53 °F 35 °F (2003)
Degree Days  
Heating Degree Days 0    
Month to date heating degree days 258  
Since 1 July heating degree days 1097  
Cooling Degree Days 4    
Month to date cooling degree days 19  
Year to date cooling degree days 74  
Growing Degree Days 18 (Base 50)    
Moisture  
Dew Point 61 °F    
Average Humidity 76    
Maximum Humidity 87    
Minimum Humidity 64    
Precipitation  
Precipitation 0.00 in 0.16 in 2.91 in (1996)
Month to date precipitation 3.91 5.26  
Year to date precipitation 14.44 13.81  
Sea Level Pressure  
Sea Level Pressure 30.05 in    
Wind  
Wind Speed 9 mph (SSW)    
Max Wind Speed 21 mph    
Max Gust Speed 26 mph    
Visibility 10 miles    
Events      
T = Trace of Precipitation, MM = Missing Value Source: NWS Daily Summary

Daily Weather History Graph

Daily Weather History Graph

Search for Another Location

Airport or City:

Trip Planner

Search our weather history database for the weather conditions in past years. The results will help you decide how hot, cold, wet, or windy it might be!

Date:

Astronomy

Mar. 31, 2013 Rise Set
Actual Time 7:30 AM EDT 7:58 PM EDT
Civil Twilight 7:06 AM EDT 8:22 PM EDT
Nautical Twilight 6:38 AM EDT 8:50 PM EDT
Astronomical Twilight 6:09 AM EDT 9:18 PM EDT
Moon No Moon Rise 10:36 AM EDT (3/31)
Length of Visible Light 13h 15m
Length of Day
12h 27m
Waning Gibbous, 78% of the Moon is Illuminated
Mar 31
Waning Gibbous
Apr 3
Last Quarter
Apr 10
New
Apr 18
First Quarter
Apr 25
Full

Hourly Weather History & Observations

Time (EDT) Temp. Dew Point Humidity Pressure Visibility Wind Dir Wind Speed Gust Speed Precip Events Conditions
12:53 AM 64.0 °F 57.9 °F 80% 30.11 in 10.0 mi SSE 10.4 mph - N/A   Clear
1:53 AM 64.9 °F 60.1 °F 84% 30.10 in 10.0 mi South 6.9 mph - N/A   Mostly Cloudy
2:53 AM 64.9 °F 60.1 °F 84% 30.09 in 10.0 mi South 6.9 mph - N/A   Overcast
3:53 AM 66.0 °F 61.0 °F 84% 30.08 in 10.0 mi South 10.4 mph - N/A   Mostly Cloudy
4:53 AM 64.9 °F 61.0 °F 87% 30.07 in 10.0 mi SSW 8.1 mph - N/A   Scattered Clouds
5:53 AM 64.9 °F 60.1 °F 84% 30.06 in 10.0 mi South 9.2 mph - N/A   Clear
6:53 AM 64.9 °F 61.0 °F 87% 30.06 in 9.0 mi South 8.1 mph - N/A   Partly Cloudy
7:53 AM 64.9 °F 61.0 °F 87% 30.07 in 8.0 mi South 10.4 mph - N/A   Overcast
8:53 AM 66.9 °F 62.1 °F 84% 30.08 in 10.0 mi South 10.4 mph 20.7 mph N/A   Overcast
9:53 AM 66.9 °F 61.0 °F 81% 30.09 in 10.0 mi South 8.1 mph - N/A   Overcast
10:53 AM 69.1 °F 61.0 °F 75% 30.09 in 10.0 mi South 10.4 mph - N/A   Mostly Cloudy
11:53 AM 71.1 °F 62.1 °F 73% 30.09 in 10.0 mi South 11.5 mph - N/A   Scattered Clouds
12:53 PM 71.1 °F 63.0 °F 75% 30.07 in 10.0 mi South 13.8 mph - N/A   Partly Cloudy
1:53 PM 73.0 °F 64.0 °F 73% 30.06 in 10.0 mi SSW 12.7 mph 20.7 mph N/A   Partly Cloudy
2:53 PM 71.1 °F 63.0 °F 75% 30.04 in 10.0 mi SSW 10.4 mph - N/A   Mostly Cloudy
3:53 PM 70.0 °F 61.0 °F 73% 30.02 in 10.0 mi SW 16.1 mph 25.3 mph N/A   Clear
4:53 PM 70.0 °F 60.1 °F 71% 30.00 in 10.0 mi SW 11.5 mph - N/A   Partly Cloudy
5:53 PM 73.0 °F 60.1 °F 64% 29.99 in 10.0 mi SW 11.5 mph - N/A   Clear
6:53 PM 70.0 °F 57.0 °F 63% 29.98 in 10.0 mi SW 13.8 mph - N/A   Clear
7:53 PM 66.9 °F 59.0 °F 76% 29.96 in 10.0 mi SW 4.6 mph - N/A   Clear
8:53 PM 66.0 °F 59.0 °F 78% 29.98 in 10.0 mi SW 6.9 mph - N/A   Clear
9:53 PM 66.0 °F 57.9 °F 75% 29.99 in 10.0 mi SSW 3.5 mph - N/A   Clear
10:53 PM 66.9 °F 57.9 °F 73% 30.01 in 10.0 mi SW 5.8 mph - N/A   Scattered Clouds
11:53 PM 66.0 °F 60.1 °F 81% 29.99 in 10.0 mi SSW 5.8 mph - N/A   Clear